Regional Weather Roundup
Issued by NWS Charleston, SC

Current Version | Previous Version | Graphics & Text | Print | Product List | Glossary On
Versions: 1 2 3 4 5 6 7 8 9 10 11 12 13 14 15 16 17 18 19 20 21 22 23 24 25 26 27 28 29 30 31 32 33 34 35 36 37 38 39 40 41 42 43 44 45 46 47 48 49 50
000 ASUS42 KCHS 250612 RWRCHS REGIONAL WEATHER ROUNDUP NATIONAL WEATHER SERVICE CHARLESTON SC 200 AM EDT THU MAY 25 2017 NOTE: "FAIR" INDICATES FEW OR NO CLOUDS BELOW 12,000 FEET WITH NO SIGNIFICANT WEATHER AND/OR OBSTRUCTIONS TO VISIBILITY. NOT ALL STATIONS ARE QUALITY CONTROLLED. USE DATA WITH CAUTION... ESPECIALLY DEWPOINT OBSERVATIONS. SCZ027-030-031-034>040-042>050-250700- ...SOUTHEAST SOUTH CAROLINA... CITY SKY/WX TMP DP RH WIND PRES REMARKS N CHARLESTON MOCLDY 72 66 81 SW13 29.57S 6HR MIN TEMP: 71; 6HR MAX TEMP: 74; 6HR PCP: TRACE; WATERFRONT PRK N/A 75 70 84 SW9 29.55F JOHNS ISLAND MOCLDY 75 68 78 SW17G26 29.58R PINOPOLIS N/A 70 68 94 SW8 29.47F MONCKS CORNER MOCLDY 68 64 88 SW9G17 29.57S SUMMERVILLE CLOUDY 68 66 94 SW6 29.58S BEAUFORT MCAS PTCLDY 70 68 93 SW17 29.58F 6HR MIN TEMP: 70; 6HR MAX TEMP: 74; 6HR PCP: TRACE; BEAUFORT ARPT MOCLDY 70 66 88 SW14G21 29.59F HILTON HEAD IS MOCLDY 72 68 88 SW15G24 29.60F WALTERBORO MOCLDY 68 64 88 SW9 29.58F ALLENDALE FAIR 66 64 94 CALM 29.57S ...SOUTHERN MIDLANDS AND PEE DEE... CITY SKY/WX TMP DP RH WIND PRES REMARKS GEORGETOWN MOCLDY 68 68 100 SW8 29.57S KINGSTREE MOCLDY N/A N/A N/A S5 29.55F ORANGEBURG LGT RAIN 65 64 97 SE5 29.55F 6HR MIN TEMP: 65; 6HR MAX TEMP: 70; 6HR PCP: 0.13; BARNWELL FAIR 64 64 100 CALM 29.57S AIKEN FAIR 57 57 100 S3 29.60S MANNING RAIN 70 68 94 MISG 29.57R COLUMBIA LGT RAIN 64 61 90 SW7 29.53F 6HR MIN TEMP: 63; 6HR MAX TEMP: 71; 6HR PCP: 0.56; SUMTER PTCLDY 66 62 89 SW10 29.52F 6HR MIN TEMP: 66; 6HR MAX TEMP: 71; 6HR PCP: 0.02; FLORENCE MOCLDY 69 68 96 SW9 29.53F 6HR MIN TEMP: 69; 6HR MAX TEMP: 72; 6HR PCP: 0.01; MYRTLE BEACH NOT AVBL N MYRTLE BEACH CLOUDY 74 70 87 SW22G33 29.53F 6HR MIN TEMP: 70; 6HR MAX TEMP: 75; 6HR PCP: 0.86; $$ GAZ063-065-086>088-099>101-113>116-118-119-134>141-150-250700- ...SOUTHEAST GEORGIA... CITY SKY/WX TMP DP RH WIND PRES REMARKS SAVANNAH ARPT MOCLDY 71 65 81 SW13 29.60F 6HR MIN TEMP: 69; 6HR MAX TEMP: 77; 6HR PCP: 0.02; HUNTER AAF CLEAR 69 69 100 SW12G20 29.57F 6HR MIN TEMP: 67; 6HR MAX TEMP: 73; 6HR PCP: 0.06; FORT STEWART CLEAR 67 62 84 W9 29.60S 6HR MIN TEMP: 67; 6HR MAX TEMP: 71; 6HR PCP: 0.14; STATESBORO MOCLDY 64 64 100 SW5 29.61S SYLVANIA PTCLDY 64 64 100 SW5 29.60S CLAXTON FAIR N/A N/A N/A SW6 29.62S ...CSRA...CENTRAL AND FAR SOUTHEAST GEORGIA... CITY SKY/WX TMP DP RH WIND PRES REMARKS THOMSON CLEAR 61 59 94 NW7 29.63R AUGUSTA-BUSH PTCLDY 62 60 93 S3 29.57R 6HR MIN TEMP: 61; 6HR MAX TEMP: 71; 6HR PCP: 0.44; AUGUSTA-DANIEL CLEAR 62 58 86 SW5 29.57S SWAINSBORO MOCLDY 64 64 100 W6 29.63R VIDALIA NOT AVBL EASTMAN FAIR 63 52 67 W3 29.67S HAZLEHURST FAIR 65 65 100 SW5 29.64S ALMA PTCLDY 68 64 87 W8 29.65S 6HR MIN TEMP: 68; 6HR MAX TEMP: 71; WAYCROSS MOCLDY 70 70 100 W8 29.66S JESUP FAIR 70 64 83 W3 29.64F BAXLEY MOCLDY 66 66 100 W5 29.64S BRUNSWICK N/A N/A N/A N/A MISG 29.65 SAINT SIMONS CLEAR 72 68 87 SW17G25 29.64F 6HR MIN TEMP: 72; 6HR MAX TEMP: 74; $$ SCZ027-028-034-036>038-045-046-048>050-GAZ119-141-250700- ...LAKE AND SUPPLEMENTAL COASTAL OBSERVATIONS... STATION/POSITION TIME TEMP WIND PRES WAVE SWELL AIR SEA DIR/SP/G HT/PER HT/PER/DIR (UTC) (F) (DEG/KT/KT) (MB) (FT/S) (FT/S/D) WINYAH BAY NOT AVBL LAKE MURRAY 0520 68 250/ 9/ 10 1000.0 ACE BASIN NERRS 0445 72 180/ 1 1002.0 FORT PULASKI 0548 71 250/ 9/ 13 1002.4F SAPELO ISLAND 0500 73 220/ 18 1004.0 $$ ANZ835-935-AMZ111-154-330-350-352-354-370-450-454-472-250700- ...C-MAN AND BUOY OBSERVATIONS... STATION/POSITION TIME TEMP WIND PRES WAVE SWELL AIR SEA DIR/SP/G HT/PER HT/PER/DIR (UTC) (F) (DEG/KT/KT) (MB) (FT/S) (FT/S/D) BUOY 41004 0550 76 76 220/ 25/ 31 1001.5F 8/ 6 BUOY 41008 0450 76 78 210/ 25/ 29 1002.5 6/ 6 FOLLY BEACH CMAN 0500 76 220/ 22/ 26 1002.2F CAPERS NEARSHORE 0508 80 77 230/ 21/ 31 1001.0F FRIPP NEARSHORE 0508 76 78 230/ 23/ 29 1001.7F STATION/POSITION TIME TEMP WIND PRES WAVE SWELL AIR SEA DIR/SP/G HT/PER HT/PER/DIR (UTC) (F) (DEG/KT/KT) (MB) (FT/S) (FT/S/D) 5E ST. MARYS GA 0500 78 N/A 4/ 6 FRYING PAN BUOY 0550 75 76 200/ 21/ 29 1000.9F 7/ 8 2/190/11 BUOY 41025 0550 74 74 170/ 19/ 23 1002.7F 6/ 8 3/180/ 8 CAPE LOOKOUT NC 0500 74 160/ 19/ 24 1001.9F BUOY 41002 0550 71 77 210/ 29/ 35 1008.5F 10/ 7 BUOY 41010 0550 79 78 230/ 19/ 27 1008.8R 10/ 8 ST AUGUSTINE FL 0600 71 76 240/ 6/ 10 1006.7F $$

USA.gov is the U.S. government's official web portal to all federal, state and local government web resources and services.